Location: *
(45.0500°N, 12.0500°E)
Time: 23:39:51
(UTC+00:00)

Cosmos 2322 Rocket - Pass Details

Date: 09 April 2020
Orbit: 834 x 849 km, 71.0° (Epoch: 03 June)

Event Time Altitude Azimuth Distance (km) Brightness Sun altitude
Rises 23:19:45 0° 328° (NNW) 3,400 6.0 -36.9°
Reaches altitude 10° 23:22:17 10° 323° (NW) 2,460 5.1 -36.9°
Enters shadow 23:24:12 21° 313° (NW) 1,803 4.2 -36.9°
